| time (UTC) | temp F | wind direction | speed knots | gust knots | rain 1hr in | rain 24hr in | rain mn in | humidity % | barometer mb |
| 20260506051107 | 64 | 342 | 7.8 | 13.0 | 0.00 | 0.00 | 0.00 | 74 | 1027.3 |
| 20260506045039 | 65 | 349 | 9.6 | 13.0 | 0.00 | 0.00 | 0.00 | 72 | 1027.4 |
| 20260506044055 | 65 | 360 | 8.7 | 13.9 | 0.00 | 0.00 | 0.00 | 72 | 1027.4 |
| 20260506043032 | 65 | 340 | 8.7 | 14.8 | 0.00 | 0.00 | 0.00 | 72 | 1027.5 |
| 20260506042028 | 65 | 328 | 8.7 | 13.0 | 0.00 | 0.00 | 0.00 | 72 | 1027.5 |
| 20260506041025 | 66 | 346 | 8.7 | 14.8 | 0.00 | 0.00 | 0.00 | 72 | 1027.7 |
| 20260506040021 | 66 | 0 | 10.4 | 14.8 | 0.00 | 0.00 | 0.00 | 72 | 1027.7 |
| 20260506035017 | 66 | 326 | 10.4 | 17.4 | 0.00 | 0.00 | 0.00 | 73 | 1027.7 |
| 20260506034117 | 65 | 338 | 11.3 | 15.6 | 0.00 | 0.00 | 0.00 | 73 | 1027.7 |
| 20260506033113 | 65 | 328 | 11.3 | 14.8 | 0.00 | 0.00 | 0.00 | 73 | 1027.6 |
| 20260506032109 | 66 | 346 | 12.2 | 20.0 | 0.00 | 0.00 | 0.00 | 72 | 1027.7 |
| 20260506031144 | 66 | 334 | 13.0 | 18.2 | 0.00 | 0.00 | 0.00 | 72 | 1027.7 |
| 20260506030100 | 66 | 356 | 11.3 | 14.8 | 0.00 | 0.00 | 0.00 | 72 | 1027.7 |
| 20260506025057 | 65 | 312 | 11.3 | 15.6 | 0.00 | 0.00 | 0.00 | 72 | 1027.7 |
| 20260506024053 | 66 | 356 | 11.3 | 15.6 | 0.00 | 0.00 | 0.00 | 72 | 1027.6 |
| 20260506023132 | 65 | 352 | 9.6 | 14.8 | 0.00 | 0.00 | 0.00 | 72 | 1027.7 |
| 20260506022046 | 65 | 345 | 11.3 | 15.6 | 0.00 | 0.00 | 0.00 | 72 | 1027.7 |
| 20260506021103 | 66 | 348 | 12.2 | 16.5 | 0.00 | 0.00 | 0.00 | 72 | 1027.9 |
| 20260506020040 | 65 | 349 | 11.3 | 14.8 | 0.00 | 0.00 | 0.00 | 73 | 1028.0 |
| 20260506015037 | 65 | 0 | 11.3 | 15.6 | 0.00 | 0.00 | 0.00 | 71 | 1028.0 |
| 20260506014054 | 67 | 354 | 7.8 | 15.6 | 0.00 | 0.00 | 0.00 | 72 | 1028.0 |
| 20260506013030 | 65 | 357 | 12.2 | 18.2 | 0.00 | 0.00 | 0.00 | 72 | 1028.0 |
| 20260506012025 | 65 | 352 | 9.6 | 14.8 | 0.00 | 0.00 | 0.00 | 72 | 1028.0 |
| 20260506011022 | 65 | 15 | 10.4 | 18.2 | 0.00 | 0.00 | 0.00 | 73 | 1028.1 |
| 20260506010018 | 65 | 358 | 11.3 | 20.0 | 0.00 | 0.00 | 0.00 | 74 | 1028.2 |
| 20260506005115 | 65 | 336 | 12.2 | 20.0 | 0.00 | 0.00 | 0.00 | 74 | 1028.4 |
| 20260506004111 | 64 | 8 | 9.6 | 13.0 | 0.00 | 0.00 | 0.00 | 74 | 1028.5 |
| 20260506003110 | 64 | 359 | 12.2 | 15.6 | 0.00 | 0.00 | 0.00 | 74 | 1028.7 |
| 20260506002107 | 64 | 334 | 12.2 | 16.5 | 0.00 | 0.00 | 0.00 | 76 | 1029.0 |
| 20260506001102 | 64 | 347 | 11.3 | 18.2 | 0.00 | 0.00 | 0.00 | 77 | 1029.1 |
| 20260506000057 | 63 | 347 | 10.4 | 13.9 | 0.00 | 0.00 | 0.00 | 81 | 1029.2 |
| 20260505235054 | 63 | 349 | 9.6 | 13.9 | 0.00 | 0.00 | 0.00 | 80 | 1029.2 |
| 20260505234111 | 63 | 341 | 9.6 | 13.9 | 0.00 | 0.00 | 0.00 | 79 | 1029.1 |
| 20260505233048 | 64 | 350 | 8.7 | 13.0 | 0.00 | 0.00 | 0.00 | 75 | 1029.3 |
| 20260505231041 | 64 | 3 | 9.6 | 13.9 | 0.00 | 0.00 | 0.00 | 74 | 1029.4 |
| 20260505230037 | 65 | 0 | 10.4 | 17.4 | 0.00 | 0.00 | 0.00 | 72 | 1029.4 |
| 20260505225035 | 65 | 356 | 10.4 | 16.5 | 0.00 | 0.00 | 0.00 | 72 | 1029.5 |
| 20260505224032 | 65 | 2 | 11.3 | 18.2 | 0.00 | 0.00 | 0.00 | 71 | 1029.4 |
| 20260505223027 | 65 | 6 | 8.7 | 13.9 | 0.00 | 0.00 | 0.00 | 72 | 1029.5 |
| 20260505222023 | 65 | 7 | 10.4 | 15.6 | 0.00 | 0.00 | 0.00 | 72 | 1029.4 |
| 20260505221020 | 64 | 359 | 9.6 | 13.0 | 0.00 | 0.00 | 0.00 | 72 | 1029.5 |
| 20260505220038 | 64 | 8 | 11.3 | 17.4 | 0.00 | 0.00 | 0.00 | 73 | 1029.5 |
| 20260505215115 | 63 | 1 | 10.4 | 14.8 | 0.00 | 0.00 | 0.00 | 76 | 1029.6 |
| 20260505214110 | 64 | 2 | 9.6 | 14.8 | 0.00 | 0.00 | 0.00 | 74 | 1029.6 |
| 20260505213107 | 63 | 359 | 9.6 | 15.6 | 0.00 | 0.00 | 0.00 | 79 | 1029.7 |
| 20260505212104 | 63 | 0 | 9.6 | 15.6 | 0.00 | 0.00 | 0.00 | 82 | 1029.8 |
| 20260505211100 | 61 | 356 | 8.7 | 13.9 | 0.00 | 0.00 | 0.00 | 84 | 1029.9 |
| 20260505210056 | 60 | 0 | 7.8 | 11.3 | 0.00 | 0.00 | 0.00 | 84 | 1030.0 |
| 20260505205053 | 60 | 354 | 8.7 | 13.9 | 0.00 | 0.00 | 0.00 | 84 | 1030.0 |
| 20260505204052 | 60 | 359 | 7.0 | 13.0 | 0.00 | 0.00 | 0.00 | 84 | 1030.0 |
| 20260505203048 | 60 | 9 | 7.8 | 13.0 | 0.00 | 0.00 | 0.00 | 84 | 1029.8 |
| 20260505202043 | 60 | 2 | 7.8 | 10.4 | 0.00 | 0.00 | 0.00 | 84 | 1029.7 |
| 20260505201040 | 60 | 347 | 7.8 | 12.2 | 0.00 | 0.00 | 0.00 | 84 | 1029.7 |
| 20260505200059 | 60 | 14 | 8.7 | 13.0 | 0.00 | 0.00 | 0.00 | 84 | 1029.7 |
| 20260505195033 | 59 | 360 | 7.8 | 12.2 | 0.00 | 0.00 | 0.00 | 83 | 1029.6 |
| 20260505194029 | 59 | 5 | 7.0 | 13.0 | 0.00 | 0.00 | 0.00 | 83 | 1029.6 |
| 20260505193027 | 59 | 352 | 7.8 | 12.2 | 0.00 | 0.00 | 0.00 | 83 | 1029.5 |
| 20260505192022 | 59 | 354 | 7.0 | 11.3 | 0.00 | 0.00 | 0.00 | 83 | 1029.5 |
| 20260505191019 | 59 | 12 | 7.8 | 12.2 | 0.00 | 0.00 | 0.00 | 83 | 1029.5 |
| 20260505190015 | 59 | 14 | 7.0 | 12.2 | 0.00 | 0.00 | 0.00 | 84 | 1029.6 |
| 20260505185113 | 59 | 22 | 6.1 | 9.6 | 0.00 | 0.00 | 0.00 | 84 | 1029.6 |
| 20260505183107 | 59 | 348 | 7.8 | 11.3 | 0.00 | 0.00 | 0.00 | 84 | 1029.6 |
| 20260505182125 | 59 | 351 | 6.1 | 9.6 | 0.00 | 0.00 | 0.00 | 85 | 1029.6 |
| 20260505181121 | 59 | 358 | 7.8 | 12.2 | 0.00 | 0.00 | 0.00 | 85 | 1029.7 |
| 20260505180055 | 59 | 359 | 7.8 | 13.0 | 0.00 | 0.00 | 0.00 | 85 | 1029.7 |
| 20260505175054 | 59 | 350 | 7.8 | 13.0 | 0.00 | 0.00 | 0.00 | 85 | 1029.7 |
| 20260505174048 | 59 | 12 | 7.0 | 11.3 | 0.00 | 0.00 | 0.00 | 86 | 1029.7 |
| 20260505173045 | 59 | 344 | 8.7 | 13.0 | 0.00 | 0.00 | 0.00 | 87 | 1029.8 |
| 20260505172041 | 59 | 345 | 8.7 | 14.8 | 0.00 | 0.00 | 0.00 | 88 | 1029.8 |
| 20260505171038 | 59 | 349 | 8.7 | 12.2 | 0.00 | 0.00 | 0.00 | 89 | 1029.7 |
| 20260505170056 | 59 | 315 | 7.0 | 9.6 | 0.00 | 0.00 | 0.00 | 90 | 1029.6 |
| 20260505165055 | 0 | 0.0 | 0.0 | 0.00 | 0.00 | 0.00 | 1029.6 | ||
| 20260505164030 | 0 | 0.0 | 0.0 | 0.00 | 0.00 | 0.00 | 1029.6 | ||
| 20260505163025 | 58 | 0 | 3.5 | 5.2 | 0.00 | 0.00 | 0.00 | 85 | 1029.8 |
| 20260505162021 | 58 | 351 | 4.3 | 7.0 | 0.00 | 0.00 | 0.00 | 85 | 1029.8 |
| 20260505161018 | 58 | 356 | 6.1 | 9.6 | 0.00 | 0.00 | 0.00 | 84 | 1029.9 |
| 20260505160114 | 59 | 357 | 9.6 | 14.8 | 0.00 | 0.00 | 0.00 | 82 | 1030.0 |
| 20260505153104 | 60 | 12 | 7.0 | 12.2 | 0.00 | 0.00 | 0.00 | 81 | 1030.2 |
| 20260505152101 | 60 | 349 | 7.8 | 15.6 | 0.00 | 0.00 | 0.00 | 81 | 1030.3 |
| 20260505151057 | 59 | 360 | 7.8 | 12.2 | 0.00 | 0.00 | 0.00 | 81 | 1030.5 |
| 20260505130112 | 60 | 1 | 7.0 | 11.3 | 0.00 | 0.00 | 0.00 | 74 | 1031.3 |
| 20260505124105 | 60 | 356 | 6.1 | 10.4 | 0.00 | 0.00 | 0.00 | 75 | 1031.4 |
| 20260505123104 | 60 | 12 | 6.1 | 9.6 | 0.00 | 0.00 | 0.00 | 76 | 1031.4 |
| 20260505122058 | 59 | 26 | 7.0 | 11.3 | 0.00 | 0.00 | 0.00 | 77 | 1031.3 |
| 20260505121056 | 59 | 5 | 5.2 | 8.7 | 0.00 | 0.00 | 0.00 | 80 | 1031.3 |
| 20260505120053 | 58 | 23 | 5.2 | 7.8 | 0.00 | 0.00 | 0.00 | 80 | 1031.3 |
| 20260505115108 | 58 | 30 | 6.1 | 9.6 | 0.00 | 0.00 | 0.00 | 80 | 1031.2 |
| 20260505114105 | 58 | 25 | 4.3 | 7.0 | 0.00 | 0.00 | 0.00 | 80 | 1031.3 |
| 20260505113041 | 58 | 21 | 2.6 | 7.0 | 0.00 | 0.00 | 0.00 | 78 | 1031.4 |
| 20260505112038 | 59 | 16 | 5.2 | 11.3 | 0.00 | 0.00 | 0.00 | 75 | 1031.6 |
| 20260505111056 | 60 | 356 | 7.0 | 13.0 | 0.00 | 0.00 | 0.00 | 72 | 1031.7 |
| 20260505102019 | 60 | 5 | 4.3 | 7.8 | 0.00 | 0.00 | 0.00 | 71 | 1031.9 |
| 20260505101117 | 60 | 3 | 4.3 | 7.8 | 0.00 | 0.00 | 0.00 | 71 | 1031.8 |
| 20260505100111 | 60 | 14 | 4.3 | 7.0 | 0.00 | 0.00 | 0.00 | 71 | 1031.8 |
| 20260505095110 | 60 | 10 | 3.5 | 7.0 | 0.00 | 0.00 | 0.00 | 71 | 1031.7 |
| 20260505094104 | 60 | 11 | 5.2 | 9.6 | 0.00 | 0.00 | 0.00 | 71 | 1031.8 |
| 20260505093122 | 59 | 349 | 5.2 | 10.4 | 0.00 | 0.00 | 0.00 | 71 | 1031.8 |
| 20260505092057 | 59 | 0 | 3.5 | 5.2 | 0.00 | 0.00 | 0.00 | 71 | 1031.6 |
| 20260505091056 | 60 | 358 | 3.5 | 6.1 | 0.00 | 0.00 | 0.00 | 71 | 1031.7 |
| 20260505090051 | 60 | 3 | 4.3 | 7.0 | 0.00 | 0.00 | 0.00 | 71 | 1031.7 |
| 20260505085050 | 59 | 7 | 3.5 | 7.0 | 0.00 | 0.00 | 0.00 | 71 | 1031.7 |
| 20260505084045 | 59 | 8 | 4.3 | 6.1 | 0.00 | 0.00 | 0.00 | 72 | 1031.6 |
| 20260505083101 | 59 | 5 | 3.5 | 6.1 | 0.00 | 0.00 | 0.00 | 73 | 1031.6 |
| 20260505082036 | 58 | 3 | 2.6 | 4.3 | 0.00 | 0.00 | 0.00 | 73 | 1031.8 |
| 20260505081033 | 58 | 23 | 1.7 | 3.5 | 0.00 | 0.00 | 0.00 | 72 | 1031.7 |
| 20260505080030 | 58 | 58 | 3.5 | 6.1 | 0.00 | 0.00 | 0.00 | 72 | 1031.7 |
| 20260505075029 | 59 | 43 | 3.5 | 7.0 | 0.00 | 0.00 | 0.00 | 72 | 1031.8 |
| 20260505074025 | 59 | 60 | 2.6 | 6.1 | 0.00 | 0.00 | 0.00 | 72 | 1031.8 |
| 20260505073025 | 59 | 21 | 2.6 | 4.3 | 0.00 | 0.00 | 0.00 | 72 | 1031.8 |
| 20260505072021 | 58 | 24 | 3.5 | 7.0 | 0.00 | 0.00 | 0.00 | 74 | 1031.8 |
| 20260505071020 | 58 | 35 | 3.5 | 7.8 | 0.00 | 0.00 | 0.00 | 77 | 1031.8 |
| 20260505070018 | 57 | 20 | 3.5 | 6.1 | 0.00 | 0.00 | 0.00 | 80 | 1031.8 |
| 20260505065115 | 57 | 36 | 3.5 | 5.2 | 0.00 | 0.00 | 0.00 | 81 | 1031.8 |
| 20260505064133 | 56 | 13 | 2.6 | 4.3 | 0.00 | 0.00 | 0.00 | 80 | 1031.8 |
| 20260505063103 | 56 | 45 | 0.9 | 2.6 | 0.00 | 0.00 | 0.00 | 79 | 1031.8 |
| 20260505062103 | 56 | 45 | 1.7 | 2.6 | 0.00 | 0.00 | 0.00 | 78 | 1031.8 |
| 20260505061114 | 56 | 26 | 1.7 | 3.5 | 0.00 | 0.00 | 0.00 | 75 | 1031.7 |
| 20260505060054 | 56 | 69 | 1.7 | 3.5 | 0.00 | 0.00 | 0.00 | 72 | 1031.6 |
| 20260505055052 | 57 | 50 | 1.7 | 2.6 | 0.00 | 0.00 | 0.00 | 70 | 1031.5 |
| 20260505054042 | 59 | 82 | 0.9 | 2.6 | 0.00 | 0.00 | 0.00 | 64 | 1031.4 |